HULIANWAN GAOGUI-01 (H*)

Last updated on Sun Jun 21 2026 00:03:09 GMT+0000 (Coordinated Universal Time)

1 59069U 24040A 26171.25595685 .00000151 00000+0 00000+0 0 9996 2 59069 0.0688 329.7998 0003106 66.6512 357.7319 1.00271141 7353
UTC large
Height (km)
Speed (km/s)
/
Latitude / Longitude
Inclination (degrees)
Orbital Period (minutes)
Azimuth
Elevation
Range (km)
Doppler Factor

Next 0 passes for location: London (51.5072 / 0.1276)

No passes found over London.
HULIANWAN GAOGUI-01 (H*)